TimeMDT,TemperatureF,Dew PointF,Humidity,Sea Level PressureIn,VisibilityMPH,Wind Direction,Wind SpeedMPH,Gust SpeedMPH,PrecipitationIn,Events,Conditions,WindDirDegrees,DateUTC
12:53 AM,39.9,30.9,70,30.29,10.0,West,4.6,-,N/A,,Clear,270,2012-09-08 06:53:00
1:53 AM,43.0,30.9,62,30.27,10.0,West,4.6,-,N/A,,Clear,260,2012-09-08 07:53:00
2:53 AM,46.9,30.9,54,30.24,10.0,West,4.6,-,N/A,,Clear,260,2012-09-08 08:53:00
3:53 AM,43.0,30.9,62,30.24,10.0,Calm,Calm,-,N/A,,Clear,0,2012-09-08 09:53:00
4:53 AM,43.0,30.9,62,30.23,10.0,NW,3.5,-,N/A,,Clear,320,2012-09-08 10:53:00
5:53 AM,46.0,33.1,61,30.22,10.0,West,4.6,-,N/A,,Clear,270,2012-09-08 11:53:00
6:53 AM,46.0,32.0,58,30.25,10.0,WNW,6.9,-,N/A,,Clear,290,2012-09-08 12:53:00
7:53 AM,55.9,34.0,44,30.24,10.0,West,3.5,-,N/A,,Clear,270,2012-09-08 13:53:00
8:53 AM,62.1,33.1,34,30.24,10.0,Variable,4.6,-,N/A,,Clear,0,2012-09-08 14:53:00
9:53 AM,64.9,28.0,25,30.24,10.0,NW,8.1,-,N/A,,Clear,310,2012-09-08 15:53:00
10:53 AM,68.0,24.1,19,30.23,10.0,North,4.6,-,N/A,,Clear,350,2012-09-08 16:53:00
11:53 AM,71.1,24.1,17,30.21,10.0,Variable,3.5,-,N/A,,Clear,0,2012-09-08 17:53:00
12:53 PM,73.9,21.9,14,30.20,10.0,NNW,8.1,-,N/A,,Clear,330,2012-09-08 18:53:00
1:53 PM,75.0,21.9,14,30.17,10.0,ESE,4.6,-,N/A,,Clear,120,2012-09-08 19:53:00
2:53 PM,75.9,21.9,13,30.14,10.0,East,9.2,-,N/A,,Clear,100,2012-09-08 20:53:00
3:53 PM,73.9,26.1,17,30.15,10.0,SE,11.5,19.6,N/A,,Clear,130,2012-09-08 21:53:00
4:53 PM,73.0,26.1,17,30.15,10.0,ESE,9.2,-,N/A,,Clear,110,2012-09-08 22:53:00
5:53 PM,71.1,26.1,19,30.15,10.0,East,10.4,-,N/A,,Clear,80,2012-09-08 23:53:00
6:53 PM,66.9,26.1,21,30.18,10.0,East,6.9,-,N/A,,Clear,100,2012-09-09 00:53:00
7:53 PM,60.1,28.0,30,30.18,10.0,ENE,6.9,-,N/A,,Clear,70,2012-09-09 01:53:00
8:53 PM,59.0,30.0,33,30.17,10.0,NE,5.8,-,N/A,,Clear,50,2012-09-09 02:53:00
9:53 PM,55.0,35.1,47,30.19,10.0,ENE,3.5,-,N/A,,Clear,70,2012-09-09 03:53:00
10:53 PM,53.1,36.0,52,30.19,10.0,NE,4.6,-,N/A,,Clear,50,2012-09-09 04:53:00
11:53 PM,50.0,36.0,59,30.18,10.0,NNE,3.5,-,N/A,,Clear,30,2012-09-09 05:53:00